Red Bluff, CA

12:37 AM PST on November 15, 2019 (GMT -0800)
Red Bluff Municipal

Weather History for KRBL - September, 2019

Change the Weather History Date:

Tuesday, September 17, 2019

  Actual Average Record
Temperature  
Mean Temperature 66 °F -  
Max Temperature 80 °F 88 °F 105 °F (1984)
Min Temperature 51 °F 58 °F 48 °F (2018)
Growing Degree Days 16 (Base 50)    
Moisture  
Dew Point 45 °F    
Average Humidity 48    
Maximum Humidity 83    
Minimum Humidity 19    
Precipitation  
Precipitation 0.00 in - - ()
Sea Level Pressure  
Sea Level Pressure 29.98 in    
Wind  
Wind Speed 5 mph (South)    
Max Wind Speed 14 mph    
Max Gust Speed 16 mph    
Visibility 10 miles    
Events      
Averages and records for this station are not official NWS values.
T = Trace of Precipitation, MM = Missing Value Source: NWS Daily Summary

Daily Weather History Graph

Daily Weather History Graph

Search for Another Location

Airport or City:

Astronomy

Sep. 17, 2019 Rise Set
Actual Time 6:51 AM PDT 7:14 PM PDT
Civil Twilight 6:24 AM PDT 7:41 PM PDT
Nautical Twilight 5:52 AM PDT 8:13 PM PDT
Astronomical Twilight 5:19 AM PDT 8:46 PM PDT
Moon 9:20 PM PDT (9/17) 10:01 AM PDT (9/17)
Length of Visible Light 13h 17m
Length of Day
12h 22m
Waning Gibbous, 88% of the Moon is Illuminated
Sep 17
Waning Gibbous
Sep 21
Last Quarter
Sep 28
New
Oct 5
First Quarter
Oct 13
Full

Hourly Weather History & Observations

Time (PDT) Temp. Dew Point Humidity Pressure Visibility Wind Dir Wind Speed Gust Speed Precip Events Conditions
12:54 AM 60.1 °F 44.1 °F 55% 30.00 in 10.0 mi Calm Calm - N/A   Clear
1:54 AM 55.9 °F 45.0 °F 67% 30.01 in 10.0 mi Calm Calm - N/A   Clear
2:54 AM 57.0 °F 45.0 °F 64% 30.03 in 10.0 mi Calm Calm - N/A   Clear
3:54 AM 55.9 °F 45.0 °F 67% 30.03 in 10.0 mi NNW 3.5 mph - N/A   Clear
4:54 AM 52.0 °F 45.0 °F 77% 30.03 in 10.0 mi NW 3.5 mph - N/A   Clear
5:54 AM 52.0 °F 45.0 °F 77% 30.04 in 10.0 mi NNW 6.9 mph - N/A   Clear
6:54 AM 51.1 °F 46.0 °F 83% 30.05 in 10.0 mi NNW 4.6 mph - N/A   Clear
7:54 AM 55.0 °F 46.9 °F 74% 30.07 in 10.0 mi NW 6.9 mph - N/A   Clear
8:54 AM 61.0 °F 48.9 °F 64% 30.06 in 10.0 mi NNW 9.2 mph - N/A   Clear
9:54 AM 66.0 °F 46.9 °F 50% 30.06 in 10.0 mi North 10.4 mph - N/A   Clear
10:54 AM 70.0 °F 46.0 °F 42% 30.05 in 10.0 mi North 5.8 mph - N/A   Clear
11:54 AM 72.0 °F 45.0 °F 38% 30.03 in 10.0 mi Variable 3.5 mph - N/A   Clear
12:54 PM 75.0 °F 45.0 °F 34% 30.02 in 10.0 mi SSE 10.4 mph 16.1 mph N/A   Clear
1:54 PM 77.0 °F 43.0 °F 30% 30.00 in 10.0 mi South 11.5 mph - N/A   Clear
2:54 PM 77.0 °F 41.0 °F 28% 29.98 in 10.0 mi South 6.9 mph - N/A   Clear
3:54 PM 78.1 °F 43.0 °F 29% 29.95 in 10.0 mi South 8.1 mph - N/A   Partly Cloudy
4:54 PM 79.0 °F 44.1 °F 29% 29.93 in 10.0 mi SE 10.4 mph - N/A   Overcast
5:54 PM 79.0 °F 44.1 °F 29% 29.91 in 10.0 mi SSE 11.5 mph - N/A   Overcast
6:54 PM 77.0 °F 45.0 °F 32% 29.89 in 10.0 mi SSE 12.7 mph - N/A   Overcast
7:54 PM 73.0 °F 46.0 °F 38% 29.89 in 10.0 mi SSE 13.8 mph - N/A   Clear
8:54 PM 71.1 °F 46.0 °F 41% 29.88 in 10.0 mi South 10.4 mph - N/A   Clear
9:54 PM 69.1 °F 46.0 °F 44% 29.88 in 10.0 mi SE 5.8 mph - N/A   Clear
10:54 PM 66.9 °F 46.0 °F 47% 29.86 in 10.0 mi South 9.2 mph - N/A   Mostly Cloudy
11:54 PM 66.9 °F 45.0 °F 45% 29.85 in 10.0 mi South 10.4 mph - N/A   Mostly Cloudy